Location: Bullfrog
(37.5121°N, 110.7330°W)
Time: 03:44:35
(UTC-06:00)

N. Korean satellite - Visible Passes

Search period start: 28 September 2021 00:00
Search period end: 08 October 2021 00:00
Orbit: 449 x 498 km, 97.3° (Epoch: 27 September)

Date Brightness Start Highest point End Pass type
(mag) Time Alt. Az. Time Alt. Az. Time Alt. Az.
28 Sep 10.0 05:37:07 10° ENE 05:38:33 12° E 05:39:59 10° ESE visible
29 Sep 6.5 06:40:31 10° N 06:44:08 87° WNW 06:47:44 10° SSW visible
30 Sep 8.3 06:12:55 10° NNE 06:16:17 36° E 06:19:39 10° SSE visible
01 Oct 9.8 05:46:00 10° NE 05:48:19 16° E 05:50:38 10° SE visible
02 Oct 6.6 06:50:12 10° N 06:53:46 62° WNW 06:57:21 10° SSW visible
03 Oct 7.6 06:22:23 10° NNE 06:25:55 50° E 06:29:27 10° S visible
04 Oct 9.3 05:55:07 10° NE 05:57:57 21° E 06:00:47 10° SSE visible
06 Oct 6.9 06:31:49 10° NNE 06:35:26 71° E 06:39:04 10° S visible
07 Oct 8.8 06:04:17 10° NE 06:07:28 28° E 06:10:39 10° SSE visible
